Location: Bothwell
(42.3833°S, 147.0000°E)
Time: 22:18:44
(UTC+11:00)

RS-44 - Pass Details

Date: 26 September 2022
Orbit: 1175 x 1510 km, 82.5° (Epoch: 29 November)

Event Time Altitude Azimuth Distance (km) Brightness Sun altitude
Exits shadow 23:34:04 45° 191° (S) 1,949 ? -45.7°
Drops below altitude 10° 23:39:59 10° 175° (S) 3,695 ? -45.9°
Sets 23:42:59 0° 172° (S) 4,687 ? -46.0°
